Regional Weather Roundup
Issued by NWS

Home | Current Version | Previous Version | Text Only | Print | Product List | Glossary Off
Versions: 1 2 3 4 5 6 7 8 9 10 11 12 13 14 15 16 17 18 19 20 21 22 23 24 25 26 27 28 29 30 31 32 33 34 35 36 37 38 39 40 41 42 43 44 45 46 47 48 49 50

000
ASUS43 KMKX 181211
RWRWI

WISCONSIN REGIONAL WEATHER ROUNDUP
NATIONAL WEATHER SERVICE MILWAUKEE/SULLIVAN WI
700 AM CDT SAT APR 18 2015

NOTE: "FAIR" INDICATES FEW OR NO CLOUDS BELOW 12,000 FEET WITH NO
SIGNIFICANT WEATHER AND/OR OBSTRUCTIONS TO VISIBILITY.

WIZ001-002-006>008-014>016-023>028-181300-
NORTHWEST WISCONSIN

CITY           SKY/WX    TMP DP  RH WIND       PRES   REMARKS
SUPERIOR ARPT  CLEAR     40  33  75 NE13G18   30.21R WCI  33
6HR MIN TEMP:  40; 6HR MAX TEMP:  52;

ASHLAND        CLEAR     38  33  82 NE13      30.22R WCI  30
6HR MIN TEMP:  33; 6HR MAX TEMP:  51;

HAYWARD        CLEAR     42  32  67 E6        30.17R
6HR MIN TEMP:  40; 6HR MAX TEMP:  53;

SIREN          CLEAR     44  32  61 E8        30.15R
6HR MIN TEMP:  44; 6HR MAX TEMP:  54;

CUMBERLAND     CLEAR     45  32  61 E7        30.14R
RICE LAKE      CLEAR     42  32  66 NE5       30.16R
6HR MIN TEMP:  40; 6HR MAX TEMP:  50;

CHETEK         CLEAR     47  32  56 NE5       30.13S
6HR MIN TEMP:  39; 6HR MAX TEMP:  52;

LADYSMITH      CLEAR     44  33  65 NE8       30.16R
6HR MIN TEMP:  43; 6HR MAX TEMP:  53;

EAU CLAIRE     PTCLDY    47  31  53 NE7       30.11S
6HR MIN TEMP:  40; 6HR MAX TEMP:  47;

MENOMONIE      PTCLDY    49  29  45 NE5       30.12S
6HR MIN TEMP:  42; 6HR MAX TEMP:  51;

NEW RICHMOND   CLEAR     44  31  60 NE5       30.11S
6HR MIN TEMP:  38; 6HR MAX TEMP:  48;

OSCEOLA        PTCLDY    48  32  53 NE9       30.14S
6HR MIN TEMP:  39; 6HR MAX TEMP:  52;

$$

WIZ003>005-009-010-017-018-181300-
NORTH CENTRAL WISCONSIN

CITY           SKY/WX    TMP DP  RH WIND       PRES   REMARKS
MANITOWISH WTR CLEAR     37  33  85 NE8       30.18R WCI  30
6HR MIN TEMP:  36; 6HR MAX TEMP:  53;

ARBOR VITAE      N/A     39  32  75 NE7       30.17R HAZE    WCI  34
6HR MIN TEMP:  39; 6HR MAX TEMP:  55;

WOODRUFF         N/A     39  32  75 NE7       30.17R HAZE    WCI  34
6HR MIN TEMP:  39; 6HR MAX TEMP:  55;

RHINELANDER    CLEAR     41  32  70 NE9       30.17R
6HR MIN TEMP:  40; 6HR MAX TEMP:  55;

EAGLE RIVER    CLEAR     37  31  77 NE7       30.18R WCI  32
6HR MIN TEMP:  37; 6HR MAX TEMP:  50;

LAND O LAKES   PTCLDY    36  32  85 NE6       30.20R WCI  31
6HR MIN TEMP:  36; 6HR MAX TEMP:  53;

PHILLIPS       CLEAR     40  32  74 NE6       30.15R
6HR MIN TEMP:  39; 6HR MAX TEMP:  54;

TOMAHAWK       CLEAR     42  31  66 CALM      30.18R
6HR MIN TEMP:  38; 6HR MAX TEMP:  49;

MEDFORD        CLEAR     44  32  63 NE9       30.14R
6HR MIN TEMP:  43; 6HR MAX TEMP:  51;

MERRILL        CLEAR     43  32  64 NE7       30.16R
6HR MIN TEMP:  38; 6HR MAX TEMP:  51;

$$

WIZ029-030-035-036-043>047-181300-
CENTRAL WISCONSIN

CITY           SKY/WX    TMP DP  RH WIND       PRES   REMARKS
WAUSAU         CLEAR     47  31  53 NE5       30.13R
6HR MIN TEMP:  47; 6HR MAX TEMP:  53;

MOSINEE        CLEAR     45  30  57 NE8       30.15R
MARSHFIELD     PTCLDY    49  31  49 NE12      30.12R
6HR MIN TEMP:  48; 6HR MAX TEMP:  55;

STEVENS POINT  CLEAR     46  31  56 NE8       30.13R
6HR MIN TEMP:  35; 6HR MAX TEMP:  46;

WAUPACA        CLEAR     50  33  50 NE6       30.14R
6HR MIN TEMP:  42; 6HR MAX TEMP:  54;

WAUTOMA        CLEAR     51  33  50 NE9       30.13R
6HR MIN TEMP:  39; 6HR MAX TEMP:  53;

WISC RAPIDS    PTCLDY    51  29  42 E9        30.13R
6HR MIN TEMP:  42; 6HR MAX TEMP:  57;

CAMP DOUGLAS   PTCLDY    47  40  76 E2        30.10R
6HR MIN TEMP:  34; 6HR MAX TEMP:  48;

$$

WIZ011>013-019>022-031-037>040-048>050-181300-
NORTHEAST WISCONSIN

CITY           SKY/WX    TMP DP  RH WIND       PRES   REMARKS
ANTIGO         CLEAR     41  33  73 NE9       30.16R
SHAWANO        CLEAR     48  35  59 NE14G22   30.16R
6HR MIN TEMP:  44; 6HR MAX TEMP:  54;

OCONTO         FAIR      44  35  72 N8        30.17R
6HR MIN TEMP:  35; 6HR MAX TEMP:  49;

STURGEON BAY   CLEAR     43  34  70 N13       30.18R
6HR MIN TEMP:  39; 6HR MAX TEMP:  48;

GREEN BAY      CLEAR     47  37  68 NE15      30.16R
6HR MIN TEMP:  44; 6HR MAX TEMP:  53;

MANITOWOC      CLEAR     46  37  71 NE8       30.16R
6HR MIN TEMP:  46; 6HR MAX TEMP:  56;

APPLETON       NOT AVBL
CLINTONVILLE   CLEAR     46  32  57 NE7       30.15R
OSHKOSH        PTCLDY    49  37  63 NE16      30.12R
6HR MIN TEMP:  44; 6HR MAX TEMP:  59;

$$

WIZ032>034-041-042-053>061-181300-
SOUTHWEST WISCONSIN

CITY           SKY/WX    TMP DP  RH WIND       PRES   REMARKS
LA CROSSE      PTCLDY    47  43  86 CALM      30.08R
6HR MIN TEMP:  45; 6HR MAX TEMP:  57;

SPARTA         PTCLDY    35  34  97 CALM      30.10R
6HR MIN TEMP:  32; 6HR MAX TEMP:  46;

VIROQUA        PTCLDY    53  31  44 NE9       30.07S
6HR MIN TEMP:  51; 6HR MAX TEMP:  59;

BOSCOBEL       PTCLDY    48  44  86 CALM      30.06R
6HR MIN TEMP:  44; 6HR MAX TEMP:  51;

PRAIRIE DU CHI CLEAR     48  43  84 CALM      30.05R
6HR MIN TEMP:  47; 6HR MAX TEMP:  53;

PLATTEVILLE    CLEAR     57  41  54 NE10      30.04R
6HR MIN TEMP:  52; 6HR MAX TEMP:  63;

$$

WIZ056-057-062-063-064-067-068-181300-
SOUTH CENTRAL WISCONSIN

CITY           SKY/WX    TMP DP  RH WIND       PRES   REMARKS
REEDSBURG      CLEAR     44  42  92 NE7       30.09R
6HR MIN TEMP:  44; 6HR MAX TEMP:  54;

BARABOO/DELLS  CLEAR     52  37  56 NE15      30.09R
6HR MIN TEMP:  45; 6HR MAX TEMP:  53;

LONE ROCK      CLEAR     43  40  89 CALM      30.07R
6HR MIN TEMP:  40; 6HR MAX TEMP:  49;

MINERAL POINT  CLEAR     59  36  41 NE8       30.05S
MADISON        MOCLDY    47  44  90 N6        30.07R
6HR MIN TEMP:  44; 6HR MAX TEMP:  54;

MIDDLETON      CLEAR     47  42  81 CALM      30.07R
6HR MIN TEMP:  45; 6HR MAX TEMP:  52;

WATERTOWN      PTCLDY    49  46  89 N7        30.07R
6HR MIN TEMP:  42; 6HR MAX TEMP:  49;

MONROE         MOCLDY    55  43  62 NE6       30.05R
JANESVILLE     NOT AVBL
$$

WIZ051-052-058>065-066-070>072-181300-
SOUTHEAST WISCONSIN

CITY           SKY/WX    TMP DP  RH WIND       PRES   REMARKS
MILWAUKEE      PTCLDY    51  39  63 N25G37    30.09R
6HR MIN TEMP:  50; 6HR MAX TEMP:  58;

WAUKESHA       CLEAR     55  41  58 NE17G28   30.10R
MILWAUKEE/TIMM CLEAR     52  36  54 NE20      30.10R
RACINE         PTCLDY    59  41  51 N25G35    30.09R
6HR MIN TEMP:  48; 6HR MAX TEMP:  60;

BURLINGTON     PTCLDY    44  41  90 CALM      30.05R
6HR MIN TEMP:  42; 6HR MAX TEMP:  46;

KENOSHA        PTCLDY    56  44  64 N6        30.05R
6HR MIN TEMP:  48; 6HR MAX TEMP:  57;

FOND DU LAC    PTCLDY    50  36  58 NE16G24   30.12R
6HR MIN TEMP:  42; 6HR MAX TEMP:  55;

SHEBOYGAN      CLEAR     46  37  71 NE16      30.13R
6HR MIN TEMP:  45; 6HR MAX TEMP:  54;

WEST BEND      CLEAR     50  32  50 NE18G26   30.11R
JUNEAU         CLEAR     52  41  65 NE14      30.10R
6HR MIN TEMP:  47; 6HR MAX TEMP:  54;

$$

LSZ147-162-181300-
LAKE SUPERIOR

STATION/POSITION TIME  TEMP    WIND        PRES    WAVE
                       AIR SEA DIR/SP/G            HT/PER
                 (UTC) (F)     (DEG/KT/KT) (MB)    (FT/S)
DEVILS ISLAND    1200   38      80/ 14/ 16 1024.9R
PORT WING        1100   41      60/ 10/ 14 1022.7S
SAXON HARBOR     1100   41      CALM  / 10 1022.7
$$

LMZ867-665-643>646-181300-
LAKE MICHIGAN

STATION/POSITION TIME  TEMP    WIND        PRES    WAVE
                       AIR SEA DIR/SP/G            HT/PER


USA.gov is the U.S. government's official web portal to all federal, state and local government web resources and services.